Погода в Камагуэе

Куба     21°22′59″N   77°54′51″W
темп.,
°C
ветер,
м/с
пор.,
м/с
влажн.,
%
обл.,
%
осадки,
мм/ч
давл.,
гПа
погр.,
м
21 мая, сб
сб2123:00+25в4992100 0.0 1019266
02:00+24всв41098100 0.0 1018420
05:00+24всв4996100 0.0 1018360
08:00+25в51189100 0.0 1019502
11:00+30в6857100 0.0 10201087
14:00+33в7950100 0.0 10191614
17:00+32всв7857100 0.0 10171395
20:00+26в71382100 0.4 1019552
22 мая, вс
вс2223:00+25в5129198 0.0 1020487
02:00+24всв5119466 0.0 1019524
05:00+24всв5119457 0.0 1019469
08:00+25всв6118452 0.0 1020613
11:00+30всв895787 0.0 10201457
14:00+32всв885071 0.0 10191971
17:00+30всв885840 0.0 10181542
20:00+25всв611815 0.1 1019634
23 мая, пн
пн2323:00+24всв5118937 0.0 1019507
02:00+23всв51192100 0.0 1017522
05:00+23всв3996100 0.9 1016356
08:00+25всв5986100 0.9 1017600
11:00+29в6761100 0.1 10171467
14:00+30в675697 1.7 10151676
17:00+29в5762100 2.2 1014966
20:00+25всв4882100 4.9 1015342
24 мая, вт
вт2423:00+23вюв4990100 7.6 1016293
02:00+23в3893100 7.8 1015257
05:00+22всв3793100 1.4 1014211
08:00+24в4889100 1.5 1015354
11:00+28в6764100 0.2 10151152
14:00+25всв4778100 0.4 1015435
17:00+23в5891100 3.1 1014422
20:00+23в5109376 3.6 1015450
25 мая, ср
ср2523:00+22всв3794100 0.0 1016219
02:00+22в3109633 1.2 1015269
05:00+22в399647 2.9 1015246
08:00+24в48905 3.0 1016366
11:00+28в666616 0.0 10161137
14:00+29в676478 0.9 10151416
17:00+28в676689 1.4 10141279
20:00+25в5108314 1.7 1015478